SCP
0 0 0 0 0 0 0 0 0 0 1 1 1 2 2 1 1 1 1 2 2 2 2 2 2 3 6 7 7 6 5 5 5 6 6 5 5 5 5 4 3 3 2 2 2 2 1 1 1
0 0 0 0 0 0 0 0 0 1 1 1 1 2 2 2 2 2 2 2 2 2 2 2 3 4 5 7 7 6 5 5 5 5 5 5 5 5 5 4 4 3 3 2 2 2 1 1 1
0 0 0 0 0 0 0 0 1 2 2 2 2 2 2 2 2 2 2 3 3 2 2 2 3 4 5 6 6 5 4 4 4 5 5 5 4 4 4 4 3 3 3 3 2 2 1 1 1
0 0 0 0 0 0 0 1 2 3 3 2 2 2 2 3 2 2 2 3 3 3 3 3 3 3 4 4 4 4 4 4 4 4 4 4 4 4 4 3 3 3 3 3 2 2 1 1 1
0 0 0 0 0 0 0 1 2 3 3 3 2 2 2 2 2 2 2 3 3 3 3 3 3 4 4 3 3 3 3 3 3 3 4 4 4 4 4 3 3 3 3 2 2 2 1 1 1
0 0 0 0 0 0 1 1 2 2 2 2 2 2 2 2 2 2 2 3 3 4 4 3 3 4 4 4 3 3 3 3 3 3 3 4 4 4 3 3 3 3 3 2 2 2 1 1 1
0 0 0 0 1 1 1 1 2 2 2 2 2 2 2 2 2 2 2 4 5 5 4 3 3 3 4 5 4 3 3 3 2 3 3 4 4 4 3 3 3 3 2 2 2 1 1 1 1
0 0 0 0 1 1 1 1 1 1 1 1 2 2 2 2 3 3 3 5 7 7 5 4 3 3 5 5 5 4 3 3 3 3 3 3 3 3 3 3 2 2 2 2 1 1 1 1 1
0 0 0 0 1 1 1 1 1 1 1 1 2 2 2 3 4 5 5 6 7 7 5 3 3 4 5 5 5 4 4 3 3 3 3 2 2 2 2 2 2 2 1 1 1 1 1 1 1
0 0 0 0 1 1 1 1 1 1 2 2 2 2 3 4 5 6 6 5 5 5 4 3 4 4 4 4 4 4 4 3 3 2 2 2 2 2 2 1 1 1 1 1 1 1 1 1 1
0 0 0 1 1 1 1 1 1 1 2 2 2 3 3 4 5 5 6 5 4 4 4 4 4 4 4 3 3 3 3 3 2 1 1 1 1 1 1 1 1 1 1 1 1 1 1 1 1
0 0 0 1 2 2 1 1 1 1 2 2 3 3 3 4 4 4 5 5 5 5 4 4 4 4 3 3 3 3 3 3 2 1 1 1 1 1 1 1 1 1 1 1 1 2 1 1 1
0 0 1 1 2 2 1 1 1 1 2 2 3 2 3 3 3 3 3 4 6 6 5 5 4 4 3 3 2 3 3 2 2 1 1 1 1 1 1 1 1 1 2 1 1 2 2 2 1
0 0 1 1 1 1 1 1 2 2 2 2 2 2 2 2 2 2 3 4 6 7 7 7 6 5 3 2 2 2 3 3 2 2 1 1 1 1 1 1 1 1 1 1 1 1 2 2 1
0 0 1 1 1 1 1 1 1 1 1 2 2 2 2 2 2 2 2 3 5 7 9 9 7 5 3 2 1 2 3 4 3 3 2 1 1 1 1 1 1 1 1 1 1 1 1 1 1
0 0 1 1 1 1 1 1 1 1 1 2 2 2 2 2 2 2 3 4 4 5 7 9 9 6 4 3 2 2 3 4 4 3 3 2 2 2 2 1 1 1 1 1 1 1 1 1 1
0 0 1 1 1 1 0 1 1 1 1 1 2 2 2 2 2 2 4 5 5 5 6 7 8 8 6 5 4 3 3 3 4 4 3 2 2 2 2 1 1 1 1 1 1 1 1 1 1
0 0 1 1 1 0 0 0 1 1 1 1 2 3 3 2 2 4 6 7 6 5 5 6 7 8 7 6 4 3 2 2 3 4 4 3 2 2 1 1 1 1 1 0 0 1 1 1 1
0 1 1 1 1 0 0 0 0 1 1 1 3 4 3 3 4 6 8 8 6 5 5 5 6 7 6 5 3 2 1 1 2 3 3 3 2 1 1 1 1 0 0 0 0 0 0 0 0
0 1 1 1 1 0 0 0 0 1 1 2 3 4 4 4 5 7 8 7 5 5 4 4 5 6 6 5 3 2 1 1 1 2 2 2 2 1 1 1 1 0 0 0 1 1 0 0 0
0 1 1 1 1 0 0 0 1 1 2 2 2 3 4 5 5 6 6 6 5 5 5 5 5 5 6 5 3 2 1 1 1 2 2 2 1 1 0 1 1 1 0 0 1 1 1 1 0
0 1 1 1 1 0 0 0 1 2 3 2 2 3 4 5 5 5 5 6 6 6 6 6 5 5 5 5 3 2 1 1 1 1 2 1 1 1 1 1 1 1 1 0 0 1 1 1 1
0 1 1 1 1 0 0 0 1 2 3 2 2 3 4 5 5 5 6 7 8 7 6 5 5 5 5 5 4 3 2 1 1 2 2 1 1 1 1 1 1 1 1 1 1 1 1 1 1
0 1 1 1 1 0 0 0 1 2 2 2 2 3 4 5 5 6 7 9 9 8 6 4 4 4 5 6 6 5 4 3 2 2 2 2 2 2 2 1 1 1 1 1 1 1 1 1 1
0 0 1 1 0 0 0 0 1 1 2 2 2 3 3 4 5 5 7 9 10 8 6 4 2 3 5 7 8 7 6 5 4 3 3 3 3 3 2 2 2 2 1 1 1 1 1 1 1
0 0 0 0 0 0 0 0 1 1 2 2 2 3 4 5 6 7 8 10 10 8 5 3 2 3 5 7 8 8 8 7 6 5 5 4 4 4 4 3 3 2 2 2 2 2 1 1 0
0 0 0 0 0 0 0 1 1 1 2 2 3 4 5 7 9 10 11 11 10 8 5 3 3 3 4 5 6 6 7 8 7 7 7 6 6 5 5 5 4 3 3 3 2 2 1 0 0
0 0 0 0 0 0 0 1 1 1 1 2 3 5 7 8 10 12 12 12 12 11 8 5 4 4 3 3 3 4 5 6 6 7 7 7 6 6 6 6 5 4 4 3 2 1 0 0 0
0 0 0 0 0 0 0 0 1 1 1 2 4 5 7 7 8 9 11 13 15 14 11 8 6 5 4 3 3 3 3 4 4 5 5 5 5 4 5 6 6 5 4 3 2 1 0 0 0
0 0 0 0 0 0 0 0 1 1 1 2 3 5 6 6 5 6 10 13 15 16 14 10 7 6 5 4 3 3 3 3 3 3 4 4 3 3 4 5 6 5 4 3 2 1 0 0 0
Wind_Speed
5 3 2 2 4 4 2 4 2 2 2 3 5 7 7 4 4 4 2 11 14 12 9 12 15 14 14 14 13 13 13 13 13 13 13 12 12 12 11 11 10 10 10 10 10 9 9 9 8
3 3 2 3 4 1 3 3 1 1 2 3 6 7 6 5 5 8 5 11 14 13 9 11 15 14 14 14 14 13 13 13 13 13 12 12 11 11 11 10 10 10 9 9 9 9 8 8 8
2 2 3 3 2 4 3 2 2 0 2 3 3 4 4 4 5 6 8 14 13 11 8 11 16 14 14 15 14 14 13 13 13 12 12 11 10 10 10 10 9 9 8 8 8 8 7 7 7
1 3 3 2 3 5 5 4 2 1 3 4 5 4 4 2 4 8 15 15 13 10 8 11 16 15 14 14 14 13 13 13 12 12 11 10 10 9 9 9 9 9 8 8 7 7 7 6 6
3 3 2 1 5 5 5 5 4 3 2 2 5 5 3 3 9 14 16 15 14 10 7 10 15 15 15 14 13 13 12 12 11 11 10 10 9 9 9 9 8 8 8 7 7 6 6 6 6
3 3 2 3 5 5 3 3 4 3 4 4 5 5 2 2 9 13 14 12 13 12 8 8 14 15 15 14 13 12 11 11 10 10 10 9 8 8 8 8 8 7 7 6 6 5 5 5 5
3 2 2 4 4 5 4 2 5 5 5 3 5 5 3 2 6 11 12 11 10 10 9 7 7 10 14 14 13 12 11 10 9 9 9 9 8 8 8 7 7 6 6 6 5 5 5 5 5
4 2 2 3 3 5 3 0 3 5 4 4 5 8 6 6 7 11 11 10 9 8 8 7 6 6 6 8 12 12 11 10 9 9 9 8 8 7 7 6 6 6 6 5 5 5 4 4 4
3 2 4 4 3 5 2 1 1 2 5 4 3 5 8 11 11 12 10 8 7 7 6 6 6 6 6 6 9 9 9 8 7 6 8 7 3 3 4 5 6 6 5 5 4 4 4 3 3
4 4 8 6 5 5 4 1 1 3 4 3 4 6 11 12 12 12 12 10 9 8 6 5 7 7 6 6 5 4 4 4 3 2 3 2 2 2 3 4 5 5 4 4 4 4 4 2 1
5 7 7 7 7 5 4 3 1 5 3 6 9 11 13 11 11 12 11 11 10 10 8 7 7 7 7 5 5 3 2 2 2 2 3 2 2 1 1 1 1 1 2 1 1 1 1 1 1
3 7 6 6 7 5 5 4 2 4 6 10 13 14 14 12 12 11 11 10 10 10 9 7 7 7 6 5 4 4 3 2 2 2 3 3 2 2 2 1 1 1 1 1 1 1 1 1 1
5 8 9 7 6 5 4 4 4 4 5 9 12 13 13 12 10 10 10 10 10 9 9 8 8 7 6 5 4 4 3 3 3 3 3 3 3 3 2 1 1 1 1 2 1 1 1 1 1
5 6 6 5 5 5 4 5 2 5 8 10 12 12 13 13 12 9 10 9 10 11 9 8 8 7 6 5 4 4 4 3 3 2 3 3 3 3 3 2 1 1 1 2 2 1 1 1 1
3 5 8 6 5 4 1 5 6 8 9 10 12 12 12 11 11 11 12 11 11 11 10 9 8 7 7 6 5 4 3 3 3 3 3 3 3 3 3 2 2 1 1 1 2 2 1 1 1
3 3 5 7 4 4 5 8 9 8 9 9 10 11 11 11 12 12 12 11 10 10 10 9 9 8 7 6 4 3 3 3 3 3 3 3 3 3 3 2 1 1 1 2 2 2 1 1 1
2 3 6 8 5 4 5 7 8 7 10 10 10 11 11 10 9 10 11 11 11 11 10 9 8 8 7 5 4 4 3 3 3 2 3 3 3 3 3 2 1 1 2 2 2 2 2 1 1
6 5 5 7 5 4 5 8 8 7 9 11 11 11 10 11 11 10 10 11 10 9 9 9 8 7 6 5 4 3 3 2 2 2 3 3 3 3 3 2 2 2 2 2 2 2 1 1 1
7 6 8 11 7 4 7 9 9 8 8 8 9 10 10 11 10 9 10 10 9 8 9 9 8 7 6 4 4 4 3 3 2 2 3 4 3 3 3 2 2 3 3 3 3 2 2 1 1
9 9 9 9 6 4 5 8 7 7 10 10 11 11 11 9 8 9 10 9 9 9 8 8 8 8 7 5 4 3 3 3 3 2 2 3 3 3 3 3 3 3 3 2 2 2 2 1 2
11 10 9 8 5 3 1 6 6 5 5 6 8 9 10 12 12 12 11 10 10 9 9 8 7 7 6 6 4 3 2 2 1 1 2 2 3 3 3 3 3 3 3 3 3 3 4 2 1
10 10 8 5 2 4 2 4 8 5 4 5 6 7 9 10 10 11 11 11 11 10 9 8 7 6 6 6 5 6 4 3 3 3 2 2 3 3 3 3 3 3 3 3 3 4 3 4 2
9 8 5 4 3 2 2 2 7 2 4 6 6 8 8 9 11 11 11 11 11 10 9 8 7 6 6 6 6 6 4 3 2 2 2 2 2 2 3 3 3 3 3 3 3 3 3 3 3
6 2 3 3 3 2 5 3 7 5 7 7 7 8 8 9 10 9 9 9 8 8 7 7 7 6 6 6 6 6 5 4 3 2 2 2 1 2 3 3 3 3 3 3 4 4 4 4 4
0 4 3 4 3 6 3 2 6 6 5 7 9 9 8 9 10 10 10 9 8 8 8 7 8 7 7 7 6 6 6 6 5 4 3 3 2 2 3 3 3 3 3 3 3 3 4 4 4
4 7 7 4 4 5 2 3 5 4 1 2 6 8 9 8 9 10 11 11 10 9 8 8 8 7 7 7 6 5 5 4 3 4 4 4 3 3 4 3 4 4 4 4 3 2 3 3 3
3 3 7 7 2 1 3 3 5 3 2 1 3 5 6 7 9 10 9 9 9 9 8 8 8 7 7 7 6 5 5 5 4 4 3 3 2 3 3 4 3 3 4 4 3 3 3 3 3
5 5 5 5 3 3 3 3 4 4 2 1 2 4 4 4 6 8 8 9 8 8 7 7 7 8 7 6 6 5 5 5 5 4 3 3 3 2 3 3 3 3 3 3 3 3 3 3 3
1 2 3 4 5 5 3 6 4 5 3 2 2 4 5 5 6 7 7 8 8 7 6 6 6 6 6 6 5 5 4 3 4 4 4 4 3 3 3 4 4 4 4 4 3 3 4 4 3
4 4 5 4 3 4 4 6 2 2 2 3 3 3 4 5 5 6 7 7 7 7 6 6 6 6 6 6 5 5 4 4 4 4 4 4 3 3 4 3 3 3 4 4 4 4 4 4 4
Wind_Direction
188 172 139 77 55 45 268 248 238 339 5 52 77 88 90 84 120 151 157 143 139 144 149 144 139 135 130 127 124 122 119 117 114 112 110 110 110 110 111 111 111 111 112 115 117 118 119 120 126
180 170 88 60 82 51 276 254 266 250 150 101 74 82 84 81 94 115 124 144 141 143 147 146 141 137 134 132 129 125 123 121 118 116 115 114 115 114 113 113 114 114 113 114 117 120 119 119 122
220 176 98 78 129 188 226 249 223 141 104 88 75 60 83 108 110 131 150 145 139 140 145 147 141 138 135 135 133 129 127 125 124 123 122 120 119 119 120 121 122 121 119 118 119 121 122 122 122
94 57 48 71 251 237 217 229 204 92 41 50 86 69 64 82 125 132 139 140 137 140 144 147 143 140 137 134 133 133 133 131 130 129 129 129 127 127 126 126 126 125 122 121 123 124 124 125 123
77 82 53 309 260 250 233 221 178 123 115 87 94 84 55 25 106 125 138 141 141 143 145 146 145 142 140 139 139 138 137 136 137 136 135 134 132 131 131 130 131 130 128 125 125 127 130 127 126
57 77 87 266 268 275 261 190 139 124 113 108 104 108 100 114 117 134 140 144 144 144 144 145 146 145 143 143 143 145 143 141 142 142 140 140 138 138 137 138 138 138 135 133 133 131 134 134 131
134 110 211 246 278 290 265 192 144 136 118 152 135 110 129 155 129 135 136 135 135 139 139 141 147 147 148 148 148 149 148 148 151 150 147 147 146 148 147 146 146 146 145 146 147 143 143 140 139
158 108 273 262 270 275 265 355 141 143 145 148 126 136 166 183 138 125 126 127 131 137 139 140 145 146 147 149 152 150 151 153 154 155 154 155 155 156 156 155 158 161 162 160 159 157 155 151 152
121 92 244 235 233 266 278 9 333 125 128 127 142 157 160 149 134 124 121 121 129 133 137 141 147 149 148 149 154 152 153 157 157 158 160 156 151 156 160 163 164 170 174 175 174 175 166 168 171
131 188 235 222 216 242 276 250 195 111 108 111 103 111 131 139 141 139 140 146 147 149 156 158 157 153 149 152 139 145 150 151 152 159 157 149 145 163 159 158 162 166 176 183 186 185 179 171 154
183 210 245 252 240 235 256 270 247 145 163 165 154 152 146 145 147 149 152 153 158 158 159 163 159 153 151 144 141 146 143 144 142 149 153 152 151 152 130 119 151 148 160 159 184 174 155 167 165
235 256 249 253 255 250 240 240 238 199 195 170 161 156 153 153 158 159 160 158 158 157 158 155 154 151 151 140 144 147 146 144 143 151 149 147 144 137 136 135 144 135 134 157 162 162 180 191 177
245 261 269 266 271 256 253 232 201 218 176 152 152 155 161 162 163 163 162 157 153 155 155 157 154 151 148 143 151 149 153 156 156 153 153 144 142 147 148 147 148 147 133 145 156 172 178 179 161
245 266 271 265 259 261 257 262 192 213 171 160 162 166 168 168 169 162 161 161 160 160 159 158 153 150 147 149 151 154 160 155 149 150 150 143 145 153 151 148 143 137 146 158 156 161 153 168 138
263 292 295 274 251 241 205 287 235 207 177 173 174 173 169 173 172 172 170 167 164 160 157 158 158 151 152 155 153 151 153 144 146 151 146 146 145 148 149 150 147 160 143 122 112 99 92 98 104
336 310 284 277 249 227 160 246 245 209 179 185 184 177 175 178 179 177 169 162 159 154 155 161 158 153 155 153 150 144 143 144 155 154 153 153 149 144 140 142 162 164 121 115 126 114 103 80 88
324 255 264 282 248 208 189 235 238 208 183 188 189 181 179 176 176 176 169 164 161 160 157 157 154 156 154 148 145 134 135 149 157 155 155 157 152 146 138 144 153 132 111 118 138 121 138 141 143
243 250 265 266 262 215 224 238 232 218 203 197 193 186 180 179 181 173 167 164 159 158 154 154 154 154 147 137 132 130 130 155 158 159 166 165 163 152 140 146 147 137 126 129 129 131 134 151 165
240 253 267 271 265 230 239 239 236 228 211 204 197 188 188 187 178 164 162 159 155 157 156 158 155 156 147 148 153 154 162 170 171 178 170 168 166 159 156 161 157 156 156 169 162 144 136 143 112
241 255 267 281 264 239 252 258 243 217 209 203 194 186 185 174 160 164 163 157 158 161 160 159 160 160 161 162 164 165 161 170 177 184 177 175 170 168 169 175 178 174 167 166 165 153 139 163 137
249 238 246 255 286 312 321 300 272 248 221 203 195 182 174 172 170 169 167 163 159 161 162 162 168 165 167 156 138 122 103 89 107 167 189 195 183 179 177 180 179 178 172 180 184 170 160 176 196
253 249 238 236 234 268 200 270 279 249 232 204 194 177 179 174 170 171 168 165 166 169 162 160 167 167 166 155 150 152 158 169 188 185 192 200 191 186 183 184 178 181 181 185 193 181 171 165 184
241 248 228 220 205 270 280 212 271 232 216 210 191 177 183 176 170 170 167 170 169 167 165 166 165 167 163 157 157 157 162 175 167 162 171 193 207 197 188 187 182 185 188 194 193 181 177 175 181
242 312 356 29 69 280 247 202 265 235 212 195 194 184 179 169 164 164 160 159 163 164 163 160 158 165 162 157 157 163 165 162 157 166 178 197 214 217 208 195 190 193 191 195 196 190 185 188 188
193 87 26 355 358 257 259 194 252 253 215 190 190 188 178 163 162 159 158 159 161 161 163 163 163 166 168 164 165 170 171 170 175 182 188 192 206 224 223 207 199 198 200 200 193 188 193 189 189
218 148 163 198 228 271 313 230 258 260 242 184 180 173 160 160 164 165 167 165 164 164 162 165 168 171 171 171 174 173 171 171 179 187 188 194 207 216 216 211 202 200 197 200 191 190 199 190 193
182 185 174 153 201 256 261 265 296 335 15 53 134 140 155 160 161 164 163 163 163 165 169 172 170 170 175 178 176 176 178 177 181 187 188 196 209 210 208 207 202 204 201 199 189 193 202 190 197
164 160 101 122 160 238 262 236 238 266 264 256 139 144 154 160 164 164 163 163 164 168 167 167 166 172 175 175 177 180 186 186 182 177 184 196 207 207 196 205 205 203 202 199 194 194 199 194 208
113 121 128 139 158 163 230 259 228 209 212 186 173 162 155 155 166 162 165 163 161 159 159 164 167 168 173 175 176 173 180 182 176 177 190 196 199 201 198 202 203 202 200 195 190 199 197 197 211
166 170 148 157 220 175 186 254 280 165 154 147 148 147 153 144 148 155 159 157 157 161 163 165 169 172 179 176 172 174 178 181 184 190 197 198 201 205 203 198 198 204 204 196 194 206 206 201 208